Overview Statistics Trail Chart Weather Telemetry Raw packets
 

This is the latest recevied weather packets stored in our database for station/object KY0TEQ-13. If no packets are shown the sender has not sent any weather packets the latest 10 day(s).

<< 80 81 82 83 84 85 86 >>
Time Temp. Humidity Pressure Rain* Wind** Luminosity Snow
1788104919 19.44° C 51% 1311.2 hPa 0 mm - 180 W/m² -
1788104615 19.44° C 52% 1311.3 hPa 0 mm - 197 W/m² -
1788104312 19.44° C 53% 1311.4 hPa 0 mm - 212 W/m² -
1788104007 19.44° C 51% 1311.4 hPa 0 mm - 248 W/m² -
1788103706 19.44° C 51% 1311.1 hPa 0 mm - 273 W/m² -
1788103401 19.44° C 53% 1311.2 hPa 0 mm - 242 W/m² -
1788103101 19.44° C 51% 1311.3 hPa 0 mm - 208 W/m² -
1788102799 19.44° C 52% 1311.3 hPa 0 mm - 156 W/m² -
1788102495 20° C 50% 1311.3 hPa 0 mm - 139 W/m² -
1788102194 19.44° C 51% 1311.3 hPa 0 mm - 150 W/m² -
1788101889 20° C 51% 1311.3 hPa 0 mm - 208 W/m² -
1788101584 19.44° C 51% 1311.2 hPa 0 mm - 185 W/m² -
1788101279 19.44° C 52% 1311.2 hPa 0 mm - 211 W/m² -
1788100975 18.89° C 52% 1311.1 hPa 0 mm - 177 W/m² -
1788100671 19.44° C 51% 1311.2 hPa 0 mm - 159 W/m² -
1788100370 18.89° C 52% 1311.2 hPa 0 mm - 212 W/m² -
1788100064 18.33° C 54% 1311.2 hPa 0 mm - 158 W/m² -
1788099760 18.33° C 55% 1311.3 hPa 0 mm - 128 W/m² -
1788099455 18.89° C 54% 1311.1 hPa 0 mm - 105 W/m² -
1788099150 18.33° C 55% 1311.4 hPa 0 mm - 120 W/m² -
1788098845 17.78° C 56% 1311.2 hPa 0 mm - 85 W/m² -
1788098540 17.78° C 57% 1311.2 hPa 0 mm - 152 W/m² -
1788098235 17.78° C 57% 1311.1 hPa 0 mm - 101 W/m² -
1788097930 17.22° C 59% 1311.2 hPa 0 mm - 103 W/m² -
1788097626 16.11° C 61% 1310.8 hPa 0 mm - 107 W/m² -

* Rain latest hour (hover to see other rain measurements)
** Current wind speed in m/s (hover to see current wind gust speed)